Flag for Canada Weather past 2 weeks in Shawinigan, Quebec, Canada

Now
60 °F

Cool.


Feels Like: 60 °F
Forecast: 58 / 73 °F
Wind: 5 mph from Southwest

Location: Shawinigan CS

Current Time: Jul 26, 2014 at 4:05:24 AM

Latest Report: Jul 26, 2014 at 3:00 AM


Visibility: N/A

Pressure: 29.81 "Hg

Humidity: 90%

Dew point: 57 °F

Location of ShawiniganLocation

Historic Weather in Shawinigan — Graph

°F

Shawinigan temperature yesterday

Maximum temperature yesterday: 77 °F (at 4:00 PM)
Minimum temperature yesterday: 53 °F (at 6:00 AM)
Average temperature yesterday: 66 °F

Past Weeks' High & Low Weather Summary

 TemperatureHumidityPressure
High81 °F (Jul 21, 2:00 PM)100% (Jul 13, 8:00 PM)30.27 "Hg (Jul 13, 8:00 PM)
Low51 °F (Jul 24, 6:00 AM)37% (Jul 24, 4:00 PM)29.63 "Hg (Jul 13, 8:00 PM)
Average67 °F74%29.98 "Hg
* Reported Jul 11 3:00 AM — Jul 26 3:00 AM, Shawinigan, Weather by CustomWeather, © 2014

Note: Actual official high and low records may vary slightly from our data, if they occured in-between our weather recording intervals... More about our weather records

Advertising

Shawinigan weather history for previous 24 hours

 ConditionsComfort  
Time TempWeatherWind HumidityBarometerVisibility
3:00 AM
Jul 26
60 °FCool.5 mph90%29.81 "HgN/A
2:00 AM60 °FCool.5 mph90%29.82 "HgN/A
1:00 AM62 °FCool.5 mph86%29.83 "HgN/A
12:00 AM63 °FMild.6 mph83%29.83 "HgN/A
11:00 PM
Jul 25
65 °FMild.5 mph75%29.83 "HgN/A
10:00 PM67 °FMild.6 mph73%29.83 "HgN/A
9:00 PM70 °FMild.7 mph69%29.82 "HgN/A
8:00 PM71 °FMild.8 mph67%29.81 "HgN/A
7:00 PM74 °FMild.10 mph63%29.80 "HgN/A
6:00 PM76 °FMild.10 mph57%29.80 "HgN/A
5:00 PM76 °FMild.13 mph46%29.79 "HgN/A
4:00 PM77 °FMild.9 mph56%29.80 "HgN/A
3:00 PM75 °FMild.10 mph62%29.82 "HgN/A
2:00 PM69 °FMild.7 mph73%29.85 "HgN/A
1:00 PM73 °FMild.7 mph65%29.86 "HgN/A
12:00 PM72 °FMild.8 mph68%29.87 "HgN/A
11:00 AM70 °FMild.6 mph70%29.89 "HgN/A
10:00 AM67 °FMild.5 mph71%29.89 "HgN/A
9:00 AM65 °FMild.3 mph74%29.89 "HgN/A
8:00 AM60 °FCool.2 mph89%29.88 "HgN/A
7:00 AM56 °FCool.1 mph93%29.88 "HgN/A
6:00 AM53 °FCool.1 mph99%29.87 "HgN/A
5:00 AM55 °FCool.5 mph94%29.86 "HgN/A
4:00 AM56 °FCool.3 mph91%29.86 "HgN/A
Weather by CustomWeather, © 2014

See weather overviewHow to use our weather pages